Regional Weather Roundup
Issued by NWS Goodland, KS

Home | Current Version | Previous Version | Graphics & Text | Print | Product List | Glossary On
Versions: 1 2 3 4 5 6 7 8 9 10 11 12 13 14 15 16 17 18 19 20 21 22 23 24 25 26 27 28 29 30 31 32 33 34 35 36 37 38 39 40 41 42 43 44 45 46 47 48 49 50
000
ASUS43 KGLD 220459
RWRGLD

GOODLAND FORECAST AREA HOURLY WEATHER ROUNDUP
NATIONAL WEATHER SERVICE GOODLAND KS
1100 PM MDT THU AUG 21 2014

...OFFICIAL OBSERVATIONS...

CITY           SKY/WX    TMP DP  RH WIND       PRES   REMARKS
GOODLAND KS    PTCLDY    69  55  60 CALM      30.01R
HILL CITY KS   CLEAR     76  68  76 E5        29.90R
IMPERIAL NEB   PTCLDY    71  63  75 E5        29.99S
MCCOOK NEB     CLEAR     72  66  81 NE6       29.95R
AKRON CO       CLOUDY    64  59  83 N5        30.12F
BURLINGTON CO  MOCLDY    69  49  48 E6        30.04F
LIMON CO       PTCLDY    63  53  70 N10       30.15S
$$

...UNOFFICIAL OBSERVATIONS...

CITY           SKY/WX    TMP DP  RH WIND       PRES   REMARKS
COLBY KS       CLEAR     72  64  78 N7        29.98S
LENORA KS        N/A     77  32  19 CALM        N/A
NORTON KS      CLEAR     75  68  78 CALM      29.92R
SHARON SPRINGS   N/A     74  56  53 CALM        N/A
WAKEENEY KS      N/A     76  65  66 MISG        N/A
KIT CARSON CO    N/A     73  50  43 MISG        N/A
YUMA CO          N/A     69  58  68 N23G30      N/A
$$


USA.gov is the U.S. government's official web portal to all federal, state and local government web resources and services.